Brookings, OR

6:31 PM PDT on September 25, 2017 (GMT -0700)
Brookings State

Weather History for KBOK - February, 2013

Change the Weather History Date:

Saturday, February 2, 2013

  Actual Average Record
Temperature  
Mean Temperature 44 °F -  
Max Temperature 48 °F 56 °F 80 °F (1984)
Min Temperature 39 °F 40 °F 28 °F (1950)
Degree Days  
Heating Degree Days 22    
Moisture  
Dew Point 45 °F    
Average Humidity 99    
Maximum Humidity 100    
Minimum Humidity 83    
Precipitation  
Precipitation 0.00 in - - ()
Sea Level Pressure  
Sea Level Pressure 30.29 in    
Wind  
Wind Speed 3 mph (SE)    
Max Wind Speed 8 mph    
Max Gust Speed -    
Visibility 9 miles    
Events      
Averages and records for this station are not official NWS values.
T = Trace of Precipitation, MM = Missing Value Source: NWS Daily Summary

Daily Weather History Graph

Daily Weather History Graph

Search for Another Location

Airport or City:

Trip Planner

Search our weather history database for the weather conditions in past years. The results will help you decide how hot, cold, wet, or windy it might be!

Date:

Astronomy

Feb. 02, 2013 Rise Set
Actual Time 7:28 AM PST 5:33 PM PST
Civil Twilight 6:59 AM PST 6:03 PM PST
Nautical Twilight 6:25 AM PST 6:36 PM PST
Astronomical Twilight 5:53 AM PST 7:09 PM PST
Moon No Moon Rise 10:34 AM PST (2/2)
Length of Visible Light 11h 04m
Length of Day
10h 05m
Waning Gibbous, 58% of the Moon is Illuminated
Feb 2
Waning Gibbous
Feb 3
Last Quarter
Feb 9
New
Feb 17
First Quarter
Feb 25
Full

Hourly Weather History & Observations

Time (PST) Temp. Windchill Dew Point Humidity Pressure Visibility Wind Dir Wind Speed Gust Speed Precip Events Conditions
12:56 AM 41.9 °F 40.0 °F 41.9 °F 100% 30.21 in 10.0 mi East 3.5 mph - N/A   Clear
1:56 AM 41.9 °F 39.0 °F 41.9 °F 100% 30.22 in 10.0 mi East 4.6 mph - N/A   Clear
2:56 AM 41.0 °F - 41.0 °F 100% 30.23 in 10.0 mi Calm Calm - N/A   Clear
3:56 AM 41.0 °F 39.0 °F 41.0 °F 100% 30.22 in 10.0 mi East 3.5 mph - N/A   Clear
4:56 AM 41.0 °F 39.0 °F 41.0 °F 100% 30.22 in 10.0 mi East 3.5 mph - N/A   Clear
5:56 AM 39.9 °F - 39.9 °F 100% 30.23 in 10.0 mi Calm Calm - N/A   Clear
6:56 AM 41.0 °F 39.0 °F 41.0 °F 100% 30.26 in 10.0 mi East 3.5 mph - N/A   Clear
7:56 AM 41.0 °F 38.0 °F 41.0 °F 100% 30.27 in 10.0 mi Variable 4.6 mph - N/A   Clear
8:56 AM 41.9 °F 40.0 °F 41.9 °F 100% 30.29 in 10.0 mi ESE 3.5 mph - N/A   Clear
9:56 AM 48.9 °F - 43.9 °F 83% 30.32 in 10.0 mi Variable 4.6 mph - N/A   Clear
10:56 AM - - - N/A% - - North - - N/A   Unknown
11:56 AM 45.9 °F 43.6 °F 45.9 °F 100% 30.34 in 1.0 mi SSW 4.6 mph - N/A   Mist
12:02 PM 46.4 °F 44.3 °F 46.4 °F 100% 30.32 in 1.5 mi SW 4.6 mph - N/A   Mist
12:04 PM 46.4 °F 45.2 °F 46.4 °F 100% 30.32 in 2.5 mi Variable 3.5 mph - N/A   Overcast
12:12 PM 46.4 °F 45.2 °F 46.4 °F 100% 30.32 in 4.0 mi Variable 3.5 mph - N/A   Overcast
12:46 PM 46.4 °F 42.9 °F 46.4 °F 100% 30.31 in 9.0 mi SSE 6.9 mph - N/A   Overcast
12:56 PM 46.9 °F - 46.9 °F 100% 30.31 in 9.0 mi South 5.8 mph - N/A   Overcast
1:56 PM 46.9 °F - 46.9 °F 100% 30.29 in 9.0 mi South 6.9 mph - N/A   Overcast
2:56 PM 47.8 °F - 47.8 °F 100% 30.29 in 9.0 mi SSW 4.6 mph - N/A   Overcast
3:23 PM 48.2 °F - 48.2 °F 100% 30.28 in 10.0 mi SSE 3.5 mph - N/A   Overcast
3:56 PM 48.9 °F - 47.8 °F 96% - - North - - N/A   Unknown
4:56 PM - - - N/A% 30.29 in - NNW 5.8 mph - N/A   Unknown
5:32 PM 48.2 °F - 48.2 °F 100% 30.30 in 10.0 mi Calm Calm - N/A   Overcast
5:56 PM 46.9 °F - 46.9 °F 100% 30.31 in 10.0 mi Calm Calm - N/A   Overcast
6:56 PM 46.9 °F - 46.9 °F 100% 30.32 in 10.0 mi Calm Calm - N/A   Overcast
7:56 PM 45.9 °F - 45.9 °F 100% 30.32 in 10.0 mi Calm Calm - N/A   Overcast
8:56 PM 45.9 °F - 45.9 °F 100% 30.31 in 10.0 mi Calm Calm - N/A   Overcast
9:56 PM 45.9 °F 42.3 °F 45.9 °F 100% 30.30 in 10.0 mi SSE 6.9 mph - N/A   Overcast
10:22 PM 46.4 °F 42.4 °F 46.4 °F 100% 30.28 in 10.0 mi SSE 8.1 mph - N/A   Overcast
10:56 PM 45.9 °F - 45.9 °F 100% 30.28 in 10.0 mi Calm Calm - N/A   Overcast
11:56 PM 45.9 °F - 45.9 °F 100% 30.32 in 10.0 mi Calm Calm - N/A   Overcast